Location: Colle dei Giovetti
(44.2833°N, 8.1000°E)
Time: 15:34:09
(UTC+00:00)

Daily predictions for brighter satellites

Satellite Brightness Start Highest point End
(mag) Time Altitude Azimuth Time Altitude Azimuth Time Altitude Azimuth
Meteor 2-19 Rocket 4.4 16:50:25 10° N 16:56:31 79° E 17:02:34 10° SSE
CORIOLIS 4.2 16:53:22 10° SSE 16:58:43 82° ENE 17:04:05 10° NNW
GEOS 3 Rocket 4.2 16:53:48 10° ESE 16:58:44 40° NE 17:03:45 10° NNW
Cosmos 332 Rocket 3.8 16:55:29 10° SSW 17:00:22 75° ESE 17:05:18 10° NNE
SL-27 R/B 2.5 17:01:53 10° NNW 17:05:28 85° WSW 17:08:58 10° SSE
Aureole 1 Rocket 2.1 17:03:53 10° NNW 17:06:54 58° ENE 17:09:51 10° SSE
CZ-4B R/B 3.9 17:02:51 10° S 17:08:27 64° WSW 17:14:01 10° NNW
Meteor 1-16 Rocket 4.3 17:04:04 10° S 17:09:44 63° E 17:15:15 10° NNE
Cosmos 1602 Rocket 3.6 17:06:27 10° N 17:10:56 65° E 17:15:21 10° SSE
Cosmos 1626 Rocket 3.6 17:06:43 10° N 17:11:12 88° ENE 17:15:37 10° S
ADEOS Rocket 3.9 17:05:22 10° N 17:11:20 59° WNW 17:17:57 10° SSW
BREEZE-M R/B 3.4 17:08:58 10° W 17:12:13 63° NNW 17:18:32 10° ENE
Feng Yun 1-1 Rocket 4.4 17:06:30 10° SSE 17:12:16 66° ENE 17:18:08 10° N
Cosmos 2228 4.0 17:10:08 10° SE 17:13:34 24° E 17:17:01 10° NE
USA 229 DEB 3.9 17:06:39 10° NW 17:14:00 83° NE 17:21:44 10° SE
USA 229 3.9 17:06:45 10° NW 17:14:06 83° NE 17:21:49 10° SE
Cosmos 1939 Rocket 3.1 17:12:34 10° SE 17:16:26 46° ENE 17:20:16 10° N
Cosmos 1356 Rocket 3.4 17:13:04 10° S 17:17:15 71° E 17:21:31 10° NNE
Cosmos 1420 Rocket 4.1 17:12:18 10° SSW 17:17:35 88° WNW 17:22:53 10° NNE
ERS-2 2.8 17:16:04 10° N 17:19:39 57° WNW 17:23:13 10° SSW
USA 281 4.4 17:14:52 10° S 17:21:10 48° WSW 17:27:30 10° NW
Cosmos 1954 Rocket 4.4 17:16:06 10° NNW 17:21:16 69° WSW 17:26:26 10° S
Cosmos 1703 3.2 17:18:54 10° N 17:22:48 62° E 17:26:42 10° SSE
Cosmos 1908 3.1 17:19:47 10° S 17:23:33 66° E 17:27:23 10° NNE
CZ-4B R/B 2.1 17:21:36 10° N 17:24:52 54° WNW 17:28:01 10° SSW
CZ-4 R/B 2.0 17:22:16 10° SE 17:25:49 33° ENE 17:29:20 10° N
Cosmos 1943 Rocket 3.9 17:21:34 10° WSW 17:26:27 31° NW 17:31:21 10° N
CZ-2D R/B 3.6 17:23:01 10° SE 17:26:39 43° ENE 17:30:17 10° N
Okean O Rocket 3.2 17:22:38 10° S 17:26:47 41° W 17:30:56 10° NNW
NOSS 3-1 (A) 4.1 17:19:28 10° NW 17:27:04 82° NE 17:35:50 10° SE
IRS-1C Rocket 4.1 17:22:21 10° SSE 17:27:34 70° ENE 17:32:49 10° N
Cosmos 1655 Rocket 4.2 17:22:15 10° N 17:28:41 83° W 17:35:05 10° S
Cosmos 2227 Rocket 3.9 17:26:15 10° N 17:29:16 14° NE 17:31:21 12° ENE
Cosmos 1741 Rocket 4.0 17:27:33 10° NNW 17:32:45 58° ENE 17:37:53 10° SE
ERBS 3.6 17:31:54 10° WSW 17:35:01 35° NW 17:38:08 10° NE
ATLAS 5 CENTAUR R/B 3.1 17:32:29 10° WSW 17:36:12 32° NW 17:40:23 10° NNE
COSMO-SKYMED 1 2.5 17:34:24 10° NNE 17:38:46 79° ESE 17:43:06 10° S
Lacrosse 5 2.9 17:35:41 10° WSW 17:40:29 41° NNW 17:45:17 10° NE
USA 276 2.1 17:40:01 10° WNW 17:43:15 82° SSW 17:45:14 21° ESE
H-2A R/B 2.7 17:38:48 10° SE 17:43:36 35° ENE 17:48:30 10° N
USA 215 3.9 17:40:04 16° E 17:44:53 42° NNE 17:50:56 10° NW
ARGOS 4.0 17:42:15 12° ESE 17:46:17 29° ENE 17:50:52 10° N
Cosmos 1241 Rocket 4.4 17:40:34 10° SSW 17:46:49 74° ESE 17:53:16 10° NE
Okean-O 2.6 17:42:56 10° SSE 17:47:19 66° ENE 17:51:44 10° N
SeaSat 1 2.8 17:45:48 12° SE 17:50:03 45° NE 17:54:45 10° NNW
Cosmos 1328 3.9 17:46:12 10° N 17:50:10 79° W 17:54:06 10° S
COSMOS 2487 2.3 17:48:06 10° NNW 17:51:32 65° ENE 17:54:55 10° SSE
CSL-04 Rocket 4.0 17:47:02 10° SE 17:52:16 44° ENE 17:57:30 10° N
Cosmos 1850 Rocket 4.0 17:47:12 10° NNW 17:52:32 88° E 17:57:51 10° SSE
Aureole 3 4.1 17:51:53 10° SSE 17:54:17 25° ESE 17:54:17 25° ESE
Cosmos 1452 Rocket 4.0 17:52:54 10° SSW 17:58:06 63° WNW 18:03:22 10° NNE
HJ-1C 4.2 17:58:45 30° ENE 17:58:45 30° ENE 18:01:23 10° N
Cosmos 1300 2.7 17:54:48 10° S 17:58:31 53° E 18:02:14 10° NNE
YAOGAN 1 2.5 17:54:15 10° SSE 17:58:32 67° ENE 18:02:51 10° N
Cosmos 1825 Rocket 3.5 17:54:58 10° N 17:59:28 85° E 18:03:55 10° S
Cosmos 1400 Rocket 3.4 18:01:51 10° SSE 18:05:30 35° E 18:05:30 35° E
CZ-2C R/B 3.2 18:00:43 10° SSE 18:06:32 76° ENE 18:12:18 10° N
Meteor 2-21 Rocket 4.4 18:02:24 10° N 18:08:39 87° E 18:14:48 10° S
Cosmos 2369 Rocket 4.3 18:05:28 10° WSW 18:10:02 24° NW 18:14:37 10° N
Cosmos 1244 Rocket 4.4 18:04:30 10° N 18:10:39 65° E 18:16:50 10° SSE
Cosmos 2297 Rocket 3.0 18:06:14 10° N 18:11:13 30° NE 18:12:08 29° ENE
SJ-11-01 4.2 18:07:08 10° SSE 18:11:42 59° ENE 18:16:19 10° N
Cosmos 1689 Rocket 4.2 18:09:18 10° N 18:11:50 27° WNW 18:14:22 10° SW
BREEZE-M R/B 4.1 18:05:37 10° W 18:13:12 43° N 18:14:14 32° NE
Cosmos 1726 Rocket 3.4 18:12:12 10° S 18:16:32 89° ENE 18:20:54 10° N
Meteor 2-8 Rocket 4.4 18:10:56 10° S 18:16:54 60° E 18:22:54 10° NNE
In-Cosmos 22 Rocket 4.2 18:12:10 10° N 18:17:19 48° ENE 18:19:42 29° SE
Helios 1A Rocket 4.3 18:19:20 10° S 18:23:15 41° W 18:27:10 10° NNW
CSL-04 Debris 4.1 18:18:16 10° SSE 18:23:40 83° ENE 18:29:09 10° NNW
Ariane Rocket 3.9 18:26:42 30° NE 18:26:42 30° NE 18:30:18 10° N
Cosmos 1606 Rocket 4.3 18:25:06 10° SSW 18:29:19 52° WNW 18:33:37 10° N
Cosmos 2219 3.5 18:24:48 10° NNW 18:30:18 43° ENE 18:30:55 42° ENE
Timation 2 Rocket 4.0 18:24:28 10° NNW 18:31:00 67° ENE 18:34:13 33° SE
SL-4 R/B 2.9 18:29:20 10° W 18:32:40 34° NNW 18:33:10 33° N
SL-08 RB Rocket 4.3 18:33:51 38° NNE 18:33:51 38° NNE 18:37:05 10° N
Cosmos 44 3.7 18:32:42 10° SSW 18:35:51 41° SSE 18:35:51 41° SSE
Cosmos 1340 3.9 18:39:32 10° N 18:41:40 32° N 18:41:40 32° N
SL-08 ROCKET BODY 4.3 18:37:42 10° N 18:43:46 69° E 18:46:19 36° SSE
S3M 3.9 18:39:01 10° S 18:44:59 59° E 18:51:00 10° NNE
Cosmos 2058 Rocket 3.3 18:42:22 10° SSW 18:46:48 70° W 18:51:18 10° N
CRYOSAT 2 4.2 18:44:15 10° N 18:49:09 90° SW 18:54:00 10° S
Meteor 2-15 4.3 18:47:26 10° S 18:53:33 75° E 18:59:42 10° NNE
Cosmos 292 Rocket 4.1 18:51:53 10° SSW 18:56:37 64° WNW 18:59:05 28° N
Cosmos 1417 Rocket 4.4 18:52:48 10° S 18:59:01 87° W 19:05:21 10° N
MOS 1 Rocket 4.0 18:55:22 10° N 18:59:43 51° WNW 19:04:17 10° SSW
CZ-4 R/B 3.9 18:57:58 10° SW 19:00:55 20° W 19:03:50 10° NW
NOSS 2-2 (E) 4.5 18:57:20 10° NW 19:03:07 79° NE 19:04:16 64° ESE
Aureole 3 Rocket 4.1 19:01:33 10° SW 19:04:42 37° WNW 19:08:41 10° N
Cosmos 2227 Rocket 2.6 19:08:44 10° NNW 19:13:11 54° N 19:13:11 54° N
Cosmos 1302 Rocket 4.3 19:10:39 10° SSW 19:15:51 65° WNW 19:16:03 65° NW
NOSS 2-2 (D) 4.4 19:13:20 10° NW 19:19:03 84° NE 19:19:03 84° NE
H-2A R/B 3.7 19:18:12 10° SSW 19:22:59 34° W 19:27:54 10° NNW
Lacrosse 5 3.8 19:20:53 10° NW 19:24:38 20° N 19:24:49 20° N
ARGOS 4.2 19:23:46 26° SSW 19:26:20 42° W 19:31:30 10° NNW
USA 215 3.1 19:27:26 82° SSW 19:27:34 83° SW 19:34:08 10° NW
SeaSat 1 4.3 19:25:37 20° SW 19:27:41 27° WSW 19:31:51 10° NW
Cosmos 2263 Rocket 4.4 19:28:34 10° N 19:29:39 14° N 19:29:39 14° N
CZ-2C R/B 4.4 19:27:09 10° N 19:40:26 - SSW 19:29:06 22° N
ATLAS 2AS CENTAUR R/B 4.1 19:28:30 10° NNW 19:34:19 27° NNE 19:34:19 27° NNE
Cosmos 2297 Rocket 3.4 19:50:03 10° NW 19:53:58 38° WNW 19:53:58 38° WNW
